Location: Newark
(25.6108°S, 54.5803°W)
Time: 13:49:04
(UTC+00:00)

A-11 Canister half - All Passes

Search period start: 31 October 2020 00:00
Search period end: 10 November 2020 00:00
Orbit: 1515 x 1685 km, 47.2° (Epoch: 30 October)

Date Brightness Start Highest point End Pass type
(mag) Time Alt. Az. Time Alt. Az. Time Alt. Az.
31 Oct - 08:26:51 10° NNW 08:35:14 39° NE 08:43:37 10° ESE visible
31 Oct - 10:30:47 10° WNW 10:39:49 56° SW 10:49:01 10° SE daylight
31 Oct - 12:39:41 10° WSW 12:46:38 23° SSW 12:53:43 10° SSE daylight
31 Oct - 14:48:19 10° SW 14:55:07 21° SSE 15:02:05 10° ESE daylight
31 Oct - 16:53:08 10° SW 17:02:24 48° SE 17:11:55 10° ENE daylight
31 Oct - 18:58:03 10° WSW 19:07:28 53° NW 19:17:09 10° NNE daylight
01 Nov - 08:04:10 10° N 08:12:23 36° NE 08:20:34 10° ESE visible
01 Nov - 10:07:47 10° WNW 10:16:52 60° SW 10:26:08 10° SE daylight
01 Nov - 12:16:30 10° WSW 12:23:32 23° SSW 12:30:44 10° SSE daylight
01 Nov - 14:25:21 10° SW 14:32:01 21° S 14:38:49 10° SE daylight
01 Nov - 16:30:16 10° SW 16:39:24 45° SE 16:48:47 10° ENE daylight
01 Nov - 18:35:04 10° SW 18:44:34 57° NW 18:54:20 10° NNE daylight
02 Nov - 07:41:32 10° N 07:49:32 33° NE 07:57:30 10° ESE visible
02 Nov - 09:44:47 10° WNW 09:53:57 64° SW 10:03:14 10° SE daylight
02 Nov - 11:53:19 10° WSW 12:00:29 24° SSW 12:07:47 10° SSE daylight
02 Nov - 14:02:22 10° SW 14:08:55 20° S 14:15:34 10° SE daylight
02 Nov - 16:07:23 10° SW 16:16:24 42° SSE 16:25:39 10° ENE daylight
02 Nov - 18:12:06 10° SW 18:21:40 62° NW 18:31:29 10° NNE daylight
02 Nov - 20:23:17 10° WNW 20:25:42 11° WNW 20:28:07 10° NW daylight
03 Nov - 07:18:54 10° N 07:26:41 30° NE 07:34:24 10° ESE visible
03 Nov - 09:21:48 10° WNW 09:31:02 68° SW 09:40:20 10° SE daylight
03 Nov - 11:30:07 10° WSW 11:37:25 25° SSW 11:44:50 10° SSE daylight
03 Nov - 13:39:21 10° SW 13:45:47 20° S 13:52:20 10° SE daylight
03 Nov - 15:44:31 10° SW 15:53:24 40° SSE 16:02:30 10° E daylight
03 Nov - 17:49:08 10° SW 17:58:45 66° NW 18:08:38 10° NNE daylight
03 Nov - 19:59:03 10° W 20:02:49 13° WNW 20:06:37 10° NNW daylight
04 Nov - 06:56:19 10° N 07:03:49 28° NE 07:11:16 10° ESE visible
04 Nov - 08:58:51 10° NW 09:08:06 73° SW 09:17:26 10° SE daylight
04 Nov - 11:06:56 10° WSW 11:14:21 26° SSW 11:21:53 10° SSE daylight
04 Nov - 13:16:21 10° SW 13:22:40 19° S 13:29:07 10° SE daylight
04 Nov - 15:21:39 10° SW 15:30:23 38° SSE 15:39:19 10° E daylight
04 Nov - 17:26:12 10° SW 17:35:50 71° NW 17:45:46 10° NE daylight
04 Nov - 19:35:16 10° W 19:39:56 14° NW 19:44:40 10° NNW daylight
05 Nov - 06:33:46 10° N 06:40:58 25° NE 06:48:06 10° ESE visible
05 Nov - 08:35:54 10° NW 08:45:12 78° SW 08:54:32 10° SE daylight
05 Nov - 10:43:45 10° WSW 10:51:18 27° SSW 10:58:58 10° SSE daylight
05 Nov - 12:53:18 10° SW 12:59:33 19° S 13:05:54 10° SE daylight
05 Nov - 14:58:47 10° SW 15:07:22 36° SSE 15:16:09 10° E daylight
05 Nov - 17:03:16 10° SW 17:12:55 76° NW 17:22:53 10° NE daylight
05 Nov - 19:11:40 10° W 19:17:03 16° NW 19:22:31 10° NNW daylight
06 Nov - 06:11:16 10° N 06:18:07 23° NE 06:24:55 10° ESE visible
06 Nov - 08:12:57 10° NW 08:22:17 83° SW 08:31:38 10° SE visible
06 Nov - 10:20:34 10° W 10:28:16 28° SSW 10:36:03 10° SSE daylight
06 Nov - 12:30:15 10° SW 12:36:26 19° S 12:42:43 10° SE daylight
06 Nov - 14:35:55 10° SW 14:44:20 34° SSE 14:52:57 10° E daylight
06 Nov - 16:40:21 10° SW 16:50:00 81° NW 16:59:58 10° NE daylight
06 Nov - 18:48:13 10° W 18:54:10 18° NW 19:00:14 10° NNW daylight
07 Nov - 05:48:48 10° N 05:55:17 21° NE 06:01:40 10° E visible
07 Nov - 07:50:02 10° NW 07:59:24 88° SW 08:08:44 10° SE visible
07 Nov - 09:57:24 10° W 10:05:14 30° SSW 10:13:09 10° SSE daylight
07 Nov - 12:07:11 10° SW 12:13:19 19° S 12:19:32 10° SE daylight
07 Nov - 14:13:03 10° SW 14:21:18 32° SSE 14:29:46 10° E daylight
07 Nov - 16:17:26 10° SW 16:27:04 86° NW 16:37:02 10° NE daylight
07 Nov - 18:24:51 10° W 18:31:18 20° NW 18:37:53 10° NNW daylight
08 Nov - 05:26:25 10° NNE 05:32:25 19° NE 05:38:22 10° E visible
08 Nov - 07:27:07 10° NW 07:36:29 87° NE 07:45:49 10° SE visible
08 Nov - 09:34:15 10° W 09:42:12 31° SSW 09:50:14 10° SSE daylight
08 Nov - 11:44:05 10° SW 11:50:12 19° S 11:56:23 10° SE daylight
08 Nov - 13:50:10 10° SSW 13:58:16 31° SSE 14:06:32 10° E daylight
08 Nov - 15:54:31 10° SW 16:04:09 89° SE 16:14:05 10° NE daylight
08 Nov - 18:01:33 10° W 18:08:25 22° NW 18:15:26 10° N daylight
09 Nov - 05:04:05 10° NNE 05:09:34 17° NE 05:15:00 10° E visible
09 Nov - 07:04:14 10° NW 07:13:36 82° NE 07:22:54 10° SE visible
09 Nov - 09:11:05 10° W 09:19:11 33° SSW 09:27:21 10° SE daylight
09 Nov - 11:20:59 10° SW 11:27:05 19° S 11:33:15 10° SE daylight
09 Nov - 13:27:18 10° SSW 13:35:14 29° SSE 13:43:20 10° E daylight
09 Nov - 15:31:37 10° SW 15:41:13 84° SE 15:51:08 10° NE daylight
09 Nov - 17:38:20 10° WSW 17:45:33 24° NW 17:52:57 10° N daylight
